Miscellaneous Local Product
Issued by NWS North Platte, NE

Home | Current Version | Previous Version | Text Only | Print | Product List | Glossary On
Versions: 1 2 3 4 5 6 7 8 9 10 11 12 13 14 15 16 17 18 19 20 21 22 23 24 25 26 27 28 29 30 31 32 33 34 35 36 37 38 39 40 41 42 43 44 45 46 47 48 49 50
686
AXUS43 KLBF 200410
MISLBF


WESTERN AND NORTH CENTRAL NEBRASKA HOURLY WEATHER ROUNDUP
NATIONAL WEATHER SERVICE NORTH PLATTE NE
1000 PM CST SUN NOV 19 2017

NOTE: "FAIR" INDICATES FEW OR NO CLOUDS BELOW 12,000 FEET WITH NO
SIGNIFICANT WEATHER AND/OR OBSTRUCTIONS TO VISIBILITY.

NOTE: STATIONS NOT REPORTING VARIABLES SUCH AS SKY/WEATHER OR
PRESSURE ARE PROVIDED BY RAWS AND APRS NETWORKS AND ARE NOT UNDER
NATIONAL WEATHER SERVICE QUALITY CONTROL.

...OBSERVATIONS IN AND NEAR THE EASTERN PANHANDLE OF NEBRASKA...

CITY           SKY/WX    TMP DP  RH WIND       PRES   REMARKS
PINE RIDGE     CLOUDY    29  17  61 SW12      29.79F WCI  19
GORDON         FAIR      35  17  46 SW5       29.79F WCI  31
CHADRON        CLOUDY    28  15  58 W10       29.80F WCI  19
ALLIANCE       CLOUDY    37  12  35 W13       29.84S WCI  29
SIDNEY         CLOUDY    29  13  51 W12       29.91S WCI  19
CRESCENT LAKE    N/A     37  13  36 CALM        N/A
$$

...OBSERVATIONS IN NORTHERN NEBRASKA AND FAR SOUTHERN SOUTH DAKOTA...

CITY           SKY/WX    TMP DP  RH WIND       PRES   REMARKS
WINNER         FAIR      45  21  38 S10       29.76F
VALENTINE      CLOUDY    39  21  48 SW9       29.78F WCI  33
THEDFORD       CLOUDY    42  23  47 SW10      29.84S
AINSWORTH      CLEAR     43  24  46 SW15      29.78F
O`NEILL        CLOUDY    35  26  71 S7        29.82F WCI  29
ORD            CLEAR     39  24  55 SW9       29.84F WCI  33
BROKEN BOW     CLEAR     31  22  69 CALM      29.85F
VALENTINE NWR    N/A     40  20  44 SW9         N/A  WCI  34
HALSEY           N/A     42  20  41 S5          N/A
BUTTE            N/A     41  23  48 SW6         N/A
CHAMBERS         N/A     38  22  51 W7          N/A  WCI  33
EWING            N/A     38  27  65 S3          N/A
$$

...OBSERVATIONS IN SOUTHWEST NEBRASKA AND FAR NORTHEAST COLORADO...

CITY           SKY/WX    TMP DP  RH WIND       PRES   REMARKS
HOLYOKE        FAIR      32  18  55 W12       29.90F WCI  23
IMPERIAL       CLOUDY    37  20  50 SW9       29.89F WCI  30
OGALLALA       CLOUDY    27  20  77 W6        29.88F WCI  20
NORTH PLATTE   CLOUDY    35  22  58 CALM      29.86F
MCCOOK         CLOUDY    41  24  51 SW10      29.90S
LEXINGTON      CLOUDY    44  27  51 SW12      29.87F
STAPLETON        N/A     30  21  69 CALM        N/A
GOTHENBURG       N/A     45  22  39 SW3         N/A
CALLAWAY         N/A     34  24  67 S8          N/A  WCI  27
$$

...OBSERVATIONS IN CENTRAL LINCOLN COUNTY AREA...

CITY           SKY/WX    TMP DP  RH WIND       PRES   REMARKS
N.P. AIRPORT   CLOUDY    35  22  58 CALM      29.86F
N.P. DOWNTOWN    N/A     38  24  57 CALM        N/A
N.P. SOUTHEAST   N/A     42  24  49 CALM        N/A
N.P. HILLCREST   N/A     43  25  48 W3          N/A
$$

...SOME OBSERVATIONS FROM AROUND THE REGION...

CITY           SKY/WX    TMP DP  RH WIND       PRES   REMARKS
DENVER         CLOUDY    46   8  21 S5        29.96F
LIMON          CLOUDY    24  15  68 CALM      29.98F
ASPEN          CLOUDY    20  13  74 S8        30.21R WCI  10
LARAMIE        CLOUDY    31   8  38 W17       29.99S WCI  19
CASPER         CLOUDY    36  16  44 SW22G30   29.90S WCI  25
CHEYENNE       CLOUDY    42   2  18 W23G30    29.95R
SCOTTSBLUFF    CLOUDY    44   8  23 W13       29.87F
GRAND ISLAND   CLOUDY    44  25  47 S12       29.89F
OMAHA          CLOUDY    39  26  59 SE12      29.93F WCI  32
SIOUX FALLS    MOCLDY    40  26  57 SW6       29.80F
PIERRE         CLOUDY    32  24  72 CALM      29.71F
RAPID CITY     CLEAR     34  17  50 W5        29.71F WCI  30
BISMARCK       CLOUDY    30  23  75 CALM      29.67F
KANSAS CITY    CLEAR     44  29  55 S13       30.05S
HILL CITY      CLOUDY    40  26  57 CALM      29.94F
WICHITA        CLEAR     42  26  53 S12       30.06F
DODGE CITY     CLEAR     41  18  39 S10       30.01S
OKLAHOMA CITY  CLEAR     39  26  59 S8        30.16S WCI  33
DALLAS         PTCLDY    48  32  53 CALM      30.22S
AMARILLO       CLOUDY    40  15  36 S17       30.10S WCI  31
$$




USA.gov is the U.S. government's official web portal to all federal, state and local government web resources and services.